Fairfield, IA

5:23 AM CST on December 06, 2019 (GMT -0600)
Fairfield Municipal

Weather History for KFFL - September, 2019

Change the Weather History Date:

Monday, September 16, 2019

  Actual Average Record
Temperature  
Mean Temperature 76 °F -  
Max Temperature 86 °F 73 °F 90 °F (1972)
Min Temperature 66 °F 53 °F -99 °F (2000)
Cooling Degree Days 11    
Growing Degree Days 26 (Base 50)    
Moisture  
Dew Point 72 °F    
Average Humidity 90    
Maximum Humidity 100    
Minimum Humidity 70    
Precipitation  
Precipitation 0.00 in - - ()
Sea Level Pressure  
Sea Level Pressure 30.07 in    
Wind  
Wind Speed 5 mph (East)    
Max Wind Speed 12 mph    
Max Gust Speed 15 mph    
Visibility 6 miles    
Events Fog    
Averages and records for this station are not official NWS values.
T = Trace of Precipitation, MM = Missing Value Source: NWS Daily Summary

Daily Weather History Graph

Daily Weather History Graph

Search for Another Location

Airport or City:

Astronomy

Sep. 16, 2019 Rise Set
Actual Time 6:49 AM CDT 7:15 PM CDT
Civil Twilight 6:21 AM CDT 7:43 PM CDT
Nautical Twilight 5:49 AM CDT 8:15 PM CDT
Astronomical Twilight 5:15 AM CDT 8:48 PM CDT
Moon 8:49 PM CDT (9/16) 8:57 AM CDT (9/16)
Length of Visible Light 13h 21m
Length of Day
12h 26m
Waning Gibbous, 94% of the Moon is Illuminated
Sep 16
Waning Gibbous
Sep 21
Last Quarter
Sep 28
New
Oct 5
First Quarter
Oct 13
Full

Hourly Weather History & Observations

Time (CDT) Temp. Heat Index Dew Point Humidity Pressure Visibility Wind Dir Wind Speed Gust Speed Precip Events Conditions
12:15 AM 68.0 °F - 68.0 °F 100% 30.03 in 7.0 mi ENE 3.5 mph - N/A   Clear
12:35 AM 69.8 °F - 69.8 °F 100% 30.03 in 10.0 mi Calm Calm - N/A   Clear
12:55 AM 69.8 °F - 69.8 °F 100% 30.04 in 3.0 mi Calm Calm - N/A   Clear
1:15 AM 68.0 °F - 68.0 °F 100% 30.04 in 3.0 mi NE 4.6 mph - N/A   Clear
1:35 AM 68.0 °F - 68.0 °F 100% 30.04 in 2.5 mi NE 3.5 mph - N/A   Clear
1:55 AM 68.0 °F - 68.0 °F 100% 30.04 in 0.2 mi NNE 4.6 mph - N/A Fog Fog
2:15 AM 66.2 °F - 66.2 °F 100% 30.04 in 3.0 mi NNE 4.6 mph - N/A   Clear
2:35 AM 68.0 °F - 68.0 °F 100% 30.04 in 3.0 mi NNE 6.9 mph - N/A   Clear
2:55 AM 69.8 °F - 69.8 °F 100% 30.05 in 3.0 mi NE 3.5 mph - N/A   Clear
3:15 AM 69.8 °F - 69.8 °F 100% 30.05 in 2.0 mi NE 4.6 mph - N/A   Clear
3:35 AM 68.0 °F - 68.0 °F 100% 30.05 in 1.5 mi NE 3.5 mph - N/A   Clear
3:55 AM 68.0 °F - 68.0 °F 100% 30.05 in 1.2 mi NE 5.8 mph - N/A   Clear
4:15 AM 69.8 °F - 69.8 °F 100% 30.06 in 2.0 mi NE 5.8 mph - N/A   Clear
4:35 AM 69.8 °F - 69.8 °F 100% 30.06 in 2.0 mi ENE 5.8 mph - N/A   Clear
4:55 AM 68.0 °F - 68.0 °F 100% 30.06 in 1.5 mi ENE 4.6 mph - N/A   Clear
5:15 AM 68.0 °F - 68.0 °F 100% 30.06 in 0.5 mi Calm Calm - N/A   Overcast
5:35 AM 68.0 °F - 68.0 °F 100% 30.07 in 0.2 mi East 4.6 mph - N/A Fog Fog
5:55 AM 68.0 °F - 68.0 °F 100% 30.07 in 0.2 mi East 3.5 mph - N/A Fog Fog
6:15 AM 68.0 °F - 68.0 °F 100% 30.08 in 0.2 mi East 4.6 mph - N/A Fog Fog
6:35 AM 68.0 °F - 68.0 °F 100% 30.08 in 0.2 mi East 4.6 mph - N/A Fog Fog
6:55 AM 68.0 °F - 68.0 °F 100% 30.09 in 0.2 mi East 4.6 mph - N/A Fog Fog
7:15 AM 68.0 °F - 68.0 °F 100% 30.09 in 0.2 mi East 4.6 mph - N/A Fog Fog
7:35 AM 69.8 °F - 69.8 °F 100% 30.10 in 0.2 mi East 4.6 mph - N/A Fog Fog
7:55 AM 69.8 °F - 69.8 °F 100% 30.11 in 0.2 mi East 5.8 mph - N/A Fog Fog
8:15 AM 69.8 °F - 69.8 °F 100% 30.11 in 0.2 mi East 5.8 mph - N/A Fog Fog
8:35 AM 69.8 °F - 69.8 °F 100% 30.11 in 0.2 mi ESE 6.9 mph - N/A Fog Fog
8:55 AM 71.6 °F - 71.6 °F 100% 30.12 in 0.2 mi East 6.9 mph - N/A Fog Fog
9:15 AM 71.6 °F - 71.6 °F 100% 30.12 in 0.5 mi East 8.1 mph - N/A   Overcast
9:35 AM 71.6 °F - 71.6 °F 100% 30.12 in 1.5 mi ESE 10.4 mph - N/A   Overcast
9:55 AM 73.4 °F - 73.4 °F 100% 30.12 in 2.5 mi East 8.1 mph - N/A   Overcast
10:15 AM 73.4 °F - 73.4 °F 100% 30.12 in 3.0 mi East 8.1 mph - N/A   Overcast
10:35 AM 75.2 °F - 75.2 °F 100% 30.12 in 5.0 mi East 10.4 mph - N/A   Overcast
10:55 AM 77.0 °F - 75.2 °F 94% 30.11 in 7.0 mi East 8.1 mph - N/A   Mostly Cloudy
11:15 AM 77.0 °F - 75.2 °F 94% 30.12 in 10.0 mi ESE 8.1 mph - N/A   Partly Cloudy
11:35 AM 78.8 °F - 75.2 °F 89% 30.11 in 10.0 mi ESE 9.2 mph - N/A   Scattered Clouds
11:55 AM 80.6 °F 86.2 °F 75.2 °F 84% 30.11 in 10.0 mi ESE 8.1 mph 15.0 mph N/A   Partly Cloudy
12:15 PM 82.4 °F 90.9 °F 77.0 °F 84% 30.10 in 10.0 mi ESE 10.4 mph - N/A   Clear
12:35 PM 82.4 °F 90.9 °F 77.0 °F 84% 30.10 in 10.0 mi ESE 11.5 mph - N/A   Clear
12:55 PM 84.2 °F 94.1 °F 77.0 °F 79% 30.10 in 10.0 mi SE 5.8 mph 12.7 mph N/A   Clear
1:15 PM 84.2 °F 94.1 °F 77.0 °F 79% 30.09 in 10.0 mi SE 9.2 mph - N/A   Scattered Clouds
1:35 PM 84.2 °F 94.1 °F 77.0 °F 79% 30.08 in 10.0 mi ESE 8.1 mph - N/A   Partly Cloudy
1:55 PM 84.2 °F 94.1 °F 77.0 °F 79% 30.08 in 10.0 mi SE 6.9 mph - N/A   Partly Cloudy
2:15 PM 86.0 °F 96.9 °F 77.0 °F 74% 30.07 in 10.0 mi SE 8.1 mph - N/A   Partly Cloudy
2:35 PM 86.0 °F 96.9 °F 77.0 °F 74% 30.06 in 10.0 mi ESE 8.1 mph - N/A   Clear
2:55 PM 86.0 °F 96.9 °F 77.0 °F 74% 30.06 in 10.0 mi ESE 8.1 mph - N/A   Scattered Clouds
3:15 PM 86.0 °F 96.9 °F 77.0 °F 74% 30.06 in 10.0 mi SE 6.9 mph - N/A   Partly Cloudy
3:35 PM 86.0 °F 96.9 °F 77.0 °F 74% 30.06 in 10.0 mi SE 5.8 mph 12.7 mph N/A   Clear
3:55 PM 86.0 °F 96.9 °F 77.0 °F 74% 30.05 in 10.0 mi Variable 5.8 mph - N/A   Clear
4:15 PM 86.0 °F 96.9 °F 77.0 °F 74% 30.05 in 10.0 mi SSE 10.4 mph - N/A   Clear
4:35 PM 86.0 °F 96.9 °F 77.0 °F 74% 30.05 in 10.0 mi ESE 9.2 mph - N/A   Partly Cloudy
4:55 PM 86.0 °F 95.1 °F 75.2 °F 70% 30.05 in 10.0 mi SE 8.1 mph - N/A   Scattered Clouds
5:15 PM 86.0 °F 96.9 °F 77.0 °F 74% 30.05 in 10.0 mi ESE 9.2 mph - N/A   Partly Cloudy
5:35 PM 84.2 °F 94.1 °F 77.0 °F 79% 30.05 in 10.0 mi ESE 6.9 mph - N/A   Clear
5:55 PM 84.2 °F 94.1 °F 77.0 °F 79% 30.05 in 10.0 mi ESE 5.8 mph - N/A   Clear
6:35 PM 80.6 °F 85.4 °F 73.4 °F 79% 30.05 in 10.0 mi East 6.9 mph - N/A   Clear
6:55 PM 78.8 °F - 71.6 °F 78% 30.05 in 10.0 mi East 8.1 mph - N/A   Clear
7:15 PM 78.8 °F - 69.8 °F 74% 30.05 in 10.0 mi East 8.1 mph - N/A   Clear
7:35 PM 77.0 °F - 69.8 °F 78% 30.06 in 10.0 mi ESE 6.9 mph - N/A   Clear
7:55 PM 75.2 °F - 69.8 °F 83% 30.06 in 10.0 mi ESE 6.9 mph - N/A   Clear
8:15 PM 75.2 °F - 69.8 °F 83% 30.06 in 10.0 mi East 8.1 mph - N/A   Clear
8:35 PM 75.2 °F - 68.0 °F 78% 30.06 in 10.0 mi East 9.2 mph - N/A   Clear
8:55 PM 75.2 °F - 68.0 °F 78% 30.06 in 10.0 mi East 8.1 mph - N/A   Clear
9:15 PM 73.4 °F - 68.0 °F 83% 30.06 in 10.0 mi East 8.1 mph - N/A   Clear
9:55 PM 71.6 °F - 68.0 °F 88% 30.07 in 10.0 mi ESE 5.8 mph - N/A   Clear
10:15 PM 71.6 °F - 68.0 °F 88% 30.07 in 10.0 mi ESE 5.8 mph - N/A   Clear
10:35 PM 71.6 °F - 68.0 °F 88% 30.07 in 10.0 mi ESE 5.8 mph - N/A   Clear
10:55 PM 71.6 °F - 68.0 °F 88% 30.07 in 10.0 mi ESE 6.9 mph - N/A   Clear
11:15 PM 69.8 °F - 68.0 °F 94% 30.08 in 10.0 mi ESE 5.8 mph - N/A   Clear
11:35 PM 69.8 °F - 68.0 °F 94% 30.08 in 10.0 mi ESE 5.8 mph - N/A   Clear
11:55 PM 69.8 °F - 68.0 °F 94% 30.08 in 10.0 mi ESE 5.8 mph - N/A   Clear